TimeAEST,TemperatureF,Dew PointF,Humidity,Sea Level PressureIn,VisibilityMPH,Wind Direction,Wind SpeedMPH,Gust SpeedMPH,PrecipitationIn,Events,Conditions,WindDirDegrees,DateUTC
12:00 AM,41,35,73,30.04,,Calm,Calm,,,,,,2013-06-15 14:00:00
12:00 AM,41.0,35.6,81,30.01,6.2,Calm,Calm,-,N/A,,Mostly Cloudy,0,2013-06-15 14:00:00
12:30 AM,42.8,35.6,76,29.98,6.2,South,3.5,-,N/A,,Mostly Cloudy,190,2013-06-15 14:30:00
1:00 AM,42,36,71,30.03,,SW,5.8,,,,,220,2013-06-15 15:00:00
1:00 AM,42.8,35.6,76,30.01,6.2,SW,5.8,-,N/A,,Mostly Cloudy,220,2013-06-15 15:00:00
1:30 AM,42.8,35.6,76,30.01,6.2,West,1.2,-,N/A,,Overcast,260,2013-06-15 15:30:00
2:00 AM,41.0,35.6,81,30.01,6.2,Calm,Calm,-,N/A,,Scattered Clouds,0,2013-06-15 16:00:00
2:30 AM,41.0,35.6,81,30.01,6.2,ESE,4.6,-,N/A,,Unknown,120,2013-06-15 16:30:00
3:00 AM,42,35,67,30.03,,WSW,1.2,,,,,250,2013-06-15 17:00:00
3:00 AM,41.0,35.6,81,29.98,6.2,WSW,1.2,-,N/A,,Unknown,250,2013-06-15 17:00:00
3:30 AM,41.0,35.6,81,29.98,6.2,Calm,Calm,-,N/A,,Unknown,0,2013-06-15 17:30:00
4:00 AM,41,34,69,30.02,,SSW,6.9,,,,,200,2013-06-15 18:00:00
4:00 AM,41.0,33.8,76,29.98,6.2,SSW,6.9,-,N/A,,Scattered Clouds,200,2013-06-15 18:00:00
4:30 AM,39.2,35.6,87,29.98,6.2,WSW,5.8,-,N/A,,Unknown,240,2013-06-15 18:30:00
5:00 AM,41.0,33.8,76,29.98,6.2,SW,4.6,-,N/A,,Scattered Clouds,230,2013-06-15 19:00:00
5:30 AM,39.2,33.8,81,29.98,6.2,South,4.6,-,N/A,,Unknown,190,2013-06-15 19:30:00
6:00 AM,35,33,90,30.02,,SSW,6.9,,,,,210,2013-06-15 20:00:00
6:00 AM,35.6,33.8,93,29.98,-9999.0,SSW,6.9,-,N/A,,Clear,210,2013-06-15 20:00:00
6:30 AM,33.8,32.0,93,29.98,-9999.0,SSW,5.8,-,N/A,,Clear,200,2013-06-15 20:30:00
7:00 AM,36,34,89,30.03,,NW,4.6,,,,,310,2013-06-15 21:00:00
7:00 AM,35.6,33.8,93,29.98,6.2,NW,4.6,-,N/A,,Partly Cloudy,310,2013-06-15 21:00:00
7:30 AM,35.6,32.0,87,29.98,6.2,North,2.3,-,N/A,,Partly Cloudy,350,2013-06-15 21:30:00
8:00 AM,35.6,33.8,93,30.01,6.2,Calm,Calm,-,N/A,,Partly Cloudy,0,2013-06-15 22:00:00
8:30 AM,39.2,37.4,93,30.01,6.2,WSW,5.8,-,N/A,,Partly Cloudy,250,2013-06-15 22:30:00
9:00 AM,42,37,77,30.04,,SW,5.8,,,,,230,2013-06-15 23:00:00
9:00 AM,42.8,37.4,81,30.01,6.2,SW,5.8,-,N/A,,Partly Cloudy,230,2013-06-15 23:00:00
9:30 AM,46.4,37.4,71,29.98,6.2,SW,9.2,-,N/A,,Partly Cloudy,220,2013-06-15 23:30:00
9:54 AM,50.0,35.6,58,29.98,6.2,South,18.4,-,N/A,,Partly Cloudy,180,2013-06-15 23:54:00
10:00 AM,49,35,47,30.02,,South,19.6,,,,,180,2013-06-16 00:00:00
10:00 AM,50.0,35.6,58,29.98,6.2,South,19.6,-,N/A,,Partly Cloudy,180,2013-06-16 00:00:00
10:30 AM,51.8,35.6,54,29.98,6.2,South,15.0,-,N/A,,Partly Cloudy,170,2013-06-16 00:30:00
11:00 AM,53.6,33.8,47,29.98,6.2,South,17.3,-,N/A,,Partly Cloudy,190,2013-06-16 01:00:00
11:30 AM,53.6,33.8,47,29.98,6.2,South,13.8,-,N/A,,Partly Cloudy,190,2013-06-16 01:30:00
12:00 PM,53,33,34,30.00,,SSW,12.7,,,,,200,2013-06-16 02:00:00
12:00 PM,53.6,33.8,47,29.95,6.2,SSW,12.7,-,N/A,,Scattered Clouds,200,2013-06-16 02:00:00
12:30 PM,53.6,35.6,51,29.95,6.2,WSW,6.9,-,N/A,,Scattered Clouds,250,2013-06-16 02:30:00
1:00 PM,56,34,32,29.97,,WNW,9.2,,,,,290,2013-06-16 03:00:00
1:00 PM,55.4,33.8,44,29.95,6.2,WNW,9.2,-,N/A,,Scattered Clouds,290,2013-06-16 03:00:00
1:30 PM,53.6,33.8,47,29.92,6.2,WNW,9.2,-,N/A,,Scattered Clouds,290,2013-06-16 03:30:00
2:00 PM,55.4,33.8,44,29.92,6.2,WNW,10.4,-,N/A,,Scattered Clouds,290,2013-06-16 04:00:00
2:30 PM,55.4,33.8,44,29.92,6.2,WNW,9.2,-,N/A,,Scattered Clouds,290,2013-06-16 04:30:00
3:00 PM,56,33,30,29.95,,WNW,10.4,,,,,300,2013-06-16 05:00:00
3:00 PM,55.4,33.8,44,29.92,6.2,WNW,10.4,-,N/A,,Scattered Clouds,300,2013-06-16 05:00:00
3:30 PM,55.4,33.8,44,29.89,6.2,NW,8.1,-,N/A,,Partly Cloudy,310,2013-06-16 05:30:00
4:00 PM,54,33,33,29.94,,NW,8.1,,,,,320,2013-06-16 06:00:00
4:00 PM,53.6,33.8,47,29.89,6.2,NW,8.1,-,N/A,,Partly Cloudy,320,2013-06-16 06:00:00
4:30 PM,50.0,35.6,58,29.89,6.2,NW,8.1,-,N/A,,Scattered Clouds,320,2013-06-16 06:30:00
5:00 PM,48.2,37.4,66,29.89,6.2,WNW,4.6,-,N/A,,Partly Cloudy,290,2013-06-16 07:00:00
5:30 PM,46.4,37.4,71,29.89,6.2,SE,4.6,-,N/A,,Scattered Clouds,140,2013-06-16 07:30:00
6:00 PM,49,39,60,29.94,,SW,5.8,,,,Overcast,220,2013-06-16 08:00:00
6:00 PM,48.2,39.2,71,29.89,6.2,SW,5.8,-,N/A,Rain,Light Rain Showers,220,2013-06-16 08:00:00
6:30 PM,48.2,39.2,71,29.89,6.2,SE,3.5,-,N/A,,Overcast,140,2013-06-16 08:30:00
7:00 PM,44,36,64,29.94,,South,3.5,,,,,180,2013-06-16 09:00:00
7:00 PM,44.6,35.6,71,29.89,6.2,South,3.5,-,N/A,,Scattered Clouds,180,2013-06-16 09:00:00
7:30 PM,42.8,35.6,76,29.89,6.2,South,6.9,-,N/A,,Scattered Clouds,170,2013-06-16 09:30:00
8:00 PM,41.0,33.8,76,29.89,6.2,ESE,5.8,-,N/A,,Unknown,120,2013-06-16 10:00:00
8:30 PM,37.4,33.8,87,29.89,6.2,Calm,Calm,-,N/A,,Unknown,0,2013-06-16 10:30:00
9:00 PM,38,33,76,29.93,,ESE,3.5,,,,,120,2013-06-16 11:00:00
9:00 PM,37.4,33.8,87,29.89,6.2,ESE,3.5,-,N/A,,Unknown,120,2013-06-16 11:00:00
9:30 PM,35.6,32.0,87,29.89,6.2,NNW,4.6,-,N/A,,Unknown,340,2013-06-16 11:30:00
10:00 PM,34,31,85,29.92,,North,4.6,,,,,10,2013-06-16 12:00:00
10:00 PM,33.8,30.2,87,29.89,6.2,North,4.6,-,N/A,,Unknown,10,2013-06-16 12:00:00
10:30 PM,33.8,30.2,87,29.89,6.2,Calm,Calm,-,N/A,,Unknown,0,2013-06-16 12:30:00
11:00 PM,32.0,30.2,93,29.89,6.2,North,3.5,-,N/A,,Unknown,360,2013-06-16 13:00:00
11:30 PM,33.8,32.0,93,29.89,6.2,ESE,1.2,-,N/A,,Scattered Clouds,110,2013-06-16 13:30:00